CW1020 Weather Reports


time (UTC)temp
C
wind
direction
speed
KPH
gust
KPH
rain 1hr
cm
rain 24hr
cm
rain mn
cm
humidity
%
barometer
mb
20260905045003 16 0 0.0 0.0 0.00 0.00 0.00 66 1017.6
20260905044504 16 0 0.0 0.0 0.00 0.00 0.00 66 1017.6
20260905044003 16 0 0.0 0.0 0.00 0.00 0.00 66 1017.6
20260905043503 16 0 0.0 0.0 0.00 0.00 0.00 66 1017.6
20260905043002 16 81 0.0 1.6 0.00 0.00 0.00 66 1017.6
20260905042503 16 80 0.0 1.6 0.00 0.00 0.00 66 1017.6
20260905042003 16 80 0.0 1.6 0.00 0.00 0.00 66 1017.5
20260905041003 17 81 0.0 1.6 0.00 0.00 0.00 65 1017.4
20260905040503 17 157 0.0 1.6 0.00 0.00 0.00 65 1017.4
20260905035503 17 0 0.0 0.0 0.00 0.00 0.00 64 1017.3
20260905035003 17 0 0.0 0.0 0.00 0.00 0.00 64 1017.2
20260905034503 17 0 0.0 0.0 0.00 0.00 0.00 64 1017.2
20260905034003 17 0 0.0 0.0 0.00 0.00 0.00 64 1017.1
20260905033503 17 0 0.0 0.0 0.00 0.00 0.00 64 1017.0
20260905032503 17 0 0.0 0.0 0.00 0.00 0.00 63 1016.8
20260905032003 17 169 0.0 1.6 0.00 0.00 0.00 63 1016.8
20260905031503 17 170 0.0 3.2 0.00 0.00 0.00 62 1016.6
20260905031003 18 0 0.0 0.0 0.00 0.00 0.00 62 1016.8
20260905030003 18 0 0.0 0.0 0.00 0.00 0.00 61 1016.7
20260905025503 18 154 0.0 1.6 0.00 0.00 0.00 60 1016.6
20260905025003 18 150 0.0 3.2 0.00 0.00 0.00 60 1016.6
20260905024503 18 0 0.0 0.0 0.00 0.00 0.00 59 1016.6
20260905024003 18 194 0.0 1.6 0.00 0.00 0.00 59 1016.5
20260905023503 18 0 0.0 0.0 0.00 0.00 0.00 59 1016.4
20260905023003 18 195 1.6 3.2 0.00 0.00 0.00 59 1016.4
20260905022503 18 197 3.2 3.2 0.00 0.00 0.00 59 1016.5
20260905022003 18 233 3.2 4.8 0.00 0.00 0.00 58 1016.5
20260905021502 18 198 3.2 8.0 0.00 0.00 0.00 58 1016.5
20260905021003 18 245 6.4 6.4 0.00 0.00 0.00 58 1016.5
20260905020503 18 237 8.0 16.1 0.00 0.00 0.00 58 1016.4
20260905015503 19 235 11.3 16.1 0.00 0.00 0.00 57 1016.4
20260905015003 19 238 11.3 17.7 0.00 0.00 0.00 56 1016.3
20260905014503 19 237 9.7 20.9 0.00 0.00 0.00 56 1016.3
20260905014004 20 240 9.7 17.7 0.00 0.00 0.00 55 1016.3
20260905013503 20 234 11.3 16.1 0.00 0.00 0.00 55 1016.3
20260905013003 20 227 12.9 17.7 0.00 0.00 0.00 55 1016.3
20260905012503 20 234 14.5 19.3 0.00 0.00 0.00 55 1016.3
20260905012003 20 235 14.5 19.3 0.00 0.00 0.00 54 1016.3
20260905010504 20 239 12.9 27.4 0.00 0.00 0.00 54 1016.3
20260905010004 20 223 12.9 20.9 0.00 0.00 0.00 52 1016.3
20260905005504 21 216 12.9 20.9 0.00 0.00 0.00 51 1016.3
20260905005003 21 216 14.5 17.7 0.00 0.00 0.00 52 1016.2
20260905004503 21 226 16.1 19.3 0.00 0.00 0.00 52 1016.2
20260905004003 21 232 16.1 24.1 0.00 0.00 0.00 50 1016.2
20260905003504 21 235 16.1 27.4 0.00 0.00 0.00 50 1016.2
20260905003003 21 231 19.3 25.7 0.00 0.00 0.00 50 1016.1
20260905002503 21 232 19.3 27.4 0.00 0.00 0.00 50 1016.0
20260905002003 21 233 17.7 33.8 0.00 0.00 0.00 49 1016.0
20260905001504 21 238 17.7 22.5 0.00 0.00 0.00 48 1016.1
20260905001003 21 233 16.1 24.1 0.00 0.00 0.00 47 1016.1
20260905000503 21 240 12.9 27.4 0.00 0.00 0.00 46 1016.1
20260905000003 21 211 12.9 19.3 0.00 0.00 0.00 46 1016.2
20260904235503 21 218 14.5 22.5 0.00 0.00 0.00 47 1016.0
20260904234504 21 233 17.7 25.7 0.00 0.00 0.00 50 1016.0
20260904233503 21 230 17.7 30.6 0.00 0.00 0.00 48 1016.0
20260904233004 21 233 17.7 27.4 0.00 0.00 0.00 49 1016.0
20260904232503 21 235 17.7 30.6 0.00 0.00 0.00 48 1016.0
20260904232003 21 234 16.1 27.4 0.00 0.00 0.00 47 1016.0
20260904230003 21 233 19.3 27.4 0.00 0.00 0.00 49 1016.0
20260904225504 21 236 19.3 30.6 0.00 0.00 0.00 50 1016.1
20260904225003 21 232 20.9 33.8 0.00 0.00 0.00 50 1016.0
20260904224503 21 232 20.9 37.0 0.00 0.00 0.00 51 1016.0
20260904224003 21 236 19.3 32.2 0.00 0.00 0.00 50 1015.9
20260904223003 21 238 19.3 27.4 0.00 0.00 0.00 51 1015.9
20260904222503 21 236 20.9 30.6 0.00 0.00 0.00 50 1015.8
20260904222003 21 236 19.3 27.4 0.00 0.00 0.00 50 1015.9
20260904221504 21 235 19.3 37.0 0.00 0.00 0.00 51 1015.9
20260904221003 21 229 20.9 25.7 0.00 0.00 0.00 51 1015.9
20260904220503 21 234 19.3 27.4 0.00 0.00 0.00 51 1016.0
20260904215503 21 228 19.3 22.5 0.00 0.00 0.00 52 1016.1
20260904214503 21 237 19.3 27.4 0.00 0.00 0.00 52 1016.0
20260904214004 21 239 19.3 30.6 0.00 0.00 0.00 51 1016.0
20260904213003 21 239 19.3 32.2 0.00 0.00 0.00 52 1016.0
20260904212504 21 235 17.7 27.4 0.00 0.00 0.00 51 1016.0
20260904212003 21 234 17.7 30.6 0.00 0.00 0.00 51 1016.1
20260904211504 21 234 19.3 30.6 0.00 0.00 0.00 52 1016.1
20260904211003 21 234 17.7 27.4 0.00 0.00 0.00 52 1016.1
20260904210502 21 232 17.7 32.2 0.00 0.00 0.00 52 1016.2
20260904210003 21 232 17.7 30.6 0.00 0.00 0.00 53 1016.3
20260904205503 21 230 19.3 30.6 0.00 0.00 0.00 52 1016.3
20260904205002 21 232 17.7 29.0 0.00 0.00 0.00 52 1016.2
20260904204502 21 235 17.7 27.4 0.00 0.00 0.00 52 1016.4
20260904204002 21 230 19.3 22.5 0.00 0.00 0.00 53 1016.3
20260904203502 21 238 20.9 30.6 0.00 0.00 0.00 53 1016.4
20260904203002 20 243 19.3 30.6 0.00 0.00 0.00 53 1016.2
20260904202503 21 234 19.3 30.6 0.00 0.00 0.00 53 1016.2
20260904202002 20 234 19.3 27.4 0.00 0.00 0.00 53 1016.2
20260904201502 20 238 17.7 32.2 0.00 0.00 0.00 53 1016.3
20260904201003 20 233 16.1 24.1 0.00 0.00 0.00 53 1016.3
20260904200503 20 235 16.1 22.5 0.00 0.00 0.00 54 1016.4
20260904200002 20 239 17.7 25.7 0.00 0.00 0.00 53 1016.3
20260904195502 20 240 19.3 24.1 0.00 0.00 0.00 54 1016.3
20260904195003 20 238 20.9 27.4 0.00 0.00 0.00 54 1016.4
20260904194502 20 236 19.3 35.4 0.00 0.00 0.00 54 1016.3
20260904194002 20 236 19.3 29.0 0.00 0.00 0.00 54 1016.3
20260904193502 20 233 16.1 30.6 0.00 0.00 0.00 53 1016.4
20260904193003 20 236 14.5 25.7 0.00 0.00 0.00 52 1016.4
20260904192502 20 239 14.5 25.7 0.00 0.00 0.00 53 1016.6
20260904191503 19 238 17.7 29.0 0.00 0.00 0.00 54 1016.6
20260904191002 19 241 17.7 25.7 0.00 0.00 0.00 54 1016.7
20260904190502 19 235 16.1 25.7 0.00 0.00 0.00 55 1016.7
20260904190003 18 236 14.5 27.4 0.00 0.00 0.00 55 1016.8
20260904185002 18 240 16.1 25.7 0.00 0.00 0.00 57 1016.8
20260904184503 18 236 14.5 25.7 0.00 0.00 0.00 57 1016.9
20260904184002 18 239 16.1 24.1 0.00 0.00 0.00 56 1016.9
20260904183502 18 236 19.3 29.0 0.00 0.00 0.00 57 1016.8
20260904183003 18 235 19.3 29.0 0.00 0.00 0.00 56 1016.9
20260904182503 18 236 16.1 30.6 0.00 0.00 0.00 56 1016.8
20260904182003 18 238 12.9 29.0 0.00 0.00 0.00 58 1016.9
20260904181503 18 235 14.5 27.4 0.00 0.00 0.00 58 1017.1
20260904181002 17 245 12.9 24.1 0.00 0.00 0.00 59 1017.2
20260904180502 17 238 11.3 27.4 0.00 0.00 0.00 59 1017.2
20260904180002 17 244 12.9 20.9 0.00 0.00 0.00 60 1017.2
20260904175502 17 241 14.5 25.7 0.00 0.00 0.00 60 1017.3
20260904175002 17 233 12.9 22.5 0.00 0.00 0.00 58 1017.2
20260904174503 17 245 12.9 17.7 0.00 0.00 0.00 58 1017.2
20260904174002 17 233 14.5 20.9 0.00 0.00 0.00 59 1017.1
20260904173502 17 238 14.5 24.1 0.00 0.00 0.00 58 1017.0
20260904173002 17 235 11.3 24.1 0.00 0.00 0.00 58 1017.1
20260904172502 17 233 11.3 19.3 0.00 0.00 0.00 58 1017.0
20260904172003 17 240 11.3 16.1 0.00 0.00 0.00 58 1017.0
20260904171502 16 239 8.0 19.3 0.00 0.00 0.00 59 1017.1
20260904171002 16 238 6.4 16.1 0.00 0.00 0.00 60 1017.1
20260904170502 16 242 8.0 17.7 0.00 0.00 0.00 60 1017.0
20260904170002 16 240 9.7 22.5 0.00 0.00 0.00 60 1017.0
20260904165502 16 236 11.3 19.3 0.00 0.00 0.00 60 1017.0
20260904165003 16 242 12.9 17.7 0.00 0.00 0.00 60 1016.9
20260904164502 16 238 12.9 19.3 0.00 0.00 0.00 60 1016.7
20260904164002 16 241 11.3 22.5 0.00 0.00 0.00 60 1016.5
20260904163502 16 233 9.7 20.9 0.00 0.00 0.00 60 1016.5
20260904163002 16 237 9.7 19.3 0.00 0.00 0.00 60 1016.5
20260904162503 16 235 9.7 17.7 0.00 0.00 0.00 60 1016.4
20260904162003 16 240 8.0 19.3 0.00 0.00 0.00 60 1016.4
20260904161502 15 235 6.4 19.3 0.00 0.00 0.00 61 1016.5
20260904160502 15 242 8.0 12.9 0.00 0.00 0.00 62 1016.5
20260904160002 15 236 8.0 12.9 0.00 0.00 0.00 63 1016.4
20260904155503 15 240 8.0 16.1 0.00 0.00 0.00 63 1016.6
20260904155002 15 236 8.0 12.9 0.00 0.00 0.00 63 1016.5
20260904154003 14 240 4.8 17.7 0.00 0.00 0.00 64 1016.5
20260904153502 14 241 4.8 12.9 0.00 0.00 0.00 65 1016.6
20260904153002 14 241 4.8 8.0 0.00 0.00 0.00 66 1016.6
20260904152503 13 241 4.8 11.3 0.00 0.00 0.00 66 1016.5
20260904152003 13 241 4.8 11.3 0.00 0.00 0.00 67 1016.5
20260904151502 13 239 4.8 12.9 0.00 0.00 0.00 67 1016.6
20260904151002 13 235 4.8 8.0 0.00 0.00 0.00 67 1016.5
20260904150503 13 242 3.2 12.9 0.00 0.00 0.00 68 1016.4
20260904150002 13 237 3.2 6.4 0.00 0.00 0.00 69 1016.3
20260904145503 13 238 3.2 12.9 0.00 0.00 0.00 69 1016.3
20260904145002 12 245 3.2 8.0 0.00 0.00 0.00 71 1016.2
20260904144502 12 243 3.2 6.4 0.00 0.00 0.00 73 1016.2
20260904144003 11 241 1.6 9.7 0.00 0.00 0.00 75 1016.1
20260904143502 11 201 0.0 4.8 0.00 0.00 0.00 76 1016.1
20260904143002 11 0 0.0 0.0 0.00 0.00 0.00 75 1016.0
20260904142503 11 0 0.0 0.0 0.00 0.00 0.00 75 1016.1
20260904142002 11 0 0.0 0.0 0.00 0.00 0.00 75 1016.0
20260904141503 10 0 0.0 0.0 0.00 0.00 0.00 75 1016.0
20260904141003 10 0 0.0 0.0 0.00 0.00 0.00 75 1016.0
20260904140502 10 63 0.0 1.6 0.00 0.00 0.00 74 1015.9
20260904135503 11 0 0.0 0.0 0.00 0.00 0.00 73 1015.8
20260904135003 11 0 0.0 0.0 0.00 0.00 0.00 73 1015.8
20260904134502 11 134 0.0 1.6 0.00 0.00 0.00 73 1015.8
20260904133503 11 0 0.0 0.0 0.00 0.00 0.00 72 1015.7
20260904133003 11 0 0.0 0.0 0.00 0.00 0.00 71 1015.8
20260904132502 11 0 0.0 0.0 0.00 0.00 0.00 71 1015.8
20260904132002 11 0 0.0 0.0 0.00 0.00 0.00 71 1015.9
20260904131502 11 0 0.0 0.0 0.00 0.00 0.00 71 1015.8
20260904131003 11 0 0.0 0.0 0.00 0.00 0.00 71 1015.7
20260904130503 11 0 0.0 0.0 0.00 0.00 0.00 70 1015.7
20260904125502 12 159 0.0 1.6 0.00 0.00 0.00 69 1015.6
20260904125002 12 116 0.0 1.6 0.00 0.00 0.00 69 1015.6
20260904124503 12 0 0.0 0.0 0.00 0.00 0.00 69 1015.6
20260904124002 12 0 0.0 0.0 0.00 0.00 0.00 68 1015.6
20260904123003 12 0 0.0 0.0 0.00 0.00 0.00 68 1015.4
20260904122502 12 0 0.0 0.0 0.00 0.00 0.00 68 1015.5
20260904122003 12 129 0.0 1.6 0.00 0.00 0.00 68 1015.4
20260904121503 12 0 0.0 0.0 0.00 0.00 0.00 68 1015.4
20260904121002 12 131 0.0 1.6 0.00 0.00 0.00 67 1015.4
20260904115502 13 205 0.0 1.6 0.00 0.00 0.00 66 1015.5
20260904114003 13 0 0.0 0.0 0.00 0.00 0.00 66 1015.5
20260904113502 13 243 0.0 1.6 0.00 0.00 0.00 66 1015.5
20260904113003 13 244 1.6 3.2 0.00 0.00 0.00 66 1015.6
20260904112503 13 242 1.6 3.2 0.00 0.00 0.00 66 1015.5
20260904111503 13 245 1.6 4.8 0.00 0.00 0.00 66 1015.4
20260904110503 13 224 0.0 3.2 0.00 0.00 0.00 66 1015.4
20260904110003 13 201 0.0 1.6 0.00 0.00 0.00 66 1015.4
20260904105502 13 0 0.0 0.0 0.00 0.00 0.00 66 1015.5
20260904103502 13 0 0.0 0.0 0.00 0.00 0.00 64 1015.4
20260904103003 13 0 0.0 0.0 0.00 0.00 0.00 64 1015.4
20260904102503 13 166 0.0 1.6 0.00 0.00 0.00 63 1015.2
20260904102002 13 0 0.0 0.0 0.00 0.00 0.00 64 1015.3
20260904101503 13 0 0.0 0.0 0.00 0.00 0.00 63 1015.3
20260904101003 13 0 0.0 0.0 0.00 0.00 0.00 63 1015.3
20260904100503 13 0 0.0 0.0 0.00 0.00 0.00 63 1015.4
20260904100003 14 0 0.0 0.0 0.00 0.00 0.00 62 1015.3
20260904095502 14 0 0.0 0.0 0.00 0.00 0.00 62 1015.4
20260904095003 14 0 0.0 0.0 0.00 0.00 0.00 62 1015.4
20260904094503 14 0 0.0 0.0 0.00 0.00 0.00 61 1015.3
20260904094002 14 166 0.0 1.6 0.00 0.00 0.00 61 1015.4
20260904093503 14 169 0.0 1.6 0.00 0.00 0.00 61 1015.4
20260904091502 14 0 0.0 0.0 0.00 0.00 0.00 61 1015.4
20260904090004 15 0 0.0 0.0 0.00 0.00 0.00 59 1015.4
20260904085503 15 161 0.0 1.6 0.00 0.00 0.00 59 1015.5
20260904085003 15 160 0.0 1.6 0.00 0.00 0.00 59 1015.5
20260904084503 15 159 0.0 1.6 0.00 0.00 0.00 58 1015.6
20260904083503 15 0 0.0 0.0 0.00 0.00 0.00 57 1015.6
20260904083002 16 0 0.0 0.0 0.00 0.00 0.00 57 1015.7
20260904082503 16 135 0.0 1.6 0.00 0.00 0.00 56 1015.8
20260904082003 16 143 0.0 1.6 0.00 0.00 0.00 56 1015.9
20260904081503 16 160 0.0 1.6 0.00 0.00 0.00 54 1015.7
20260904081003 16 0 0.0 0.0 0.00 0.00 0.00 54 1015.7
20260904080503 16 164 1.6 1.6 0.00 0.00 0.00 54 1015.7
20260904080003 16 177 1.6 4.8 0.00 0.00 0.00 54 1015.7
20260904075503 16 217 3.2 3.2 0.00 0.00 0.00 54 1015.6
20260904075003 16 167 4.8 6.4 0.00 0.00 0.00 53 1015.6
20260904074503 16 164 4.8 12.9 0.00 0.00 0.00 53 1015.6
20260904074003 16 167 6.4 8.0 0.00 0.00 0.00 54 1015.6
20260904073003 16 145 6.4 11.3 0.00 0.00 0.00 54 1015.7
20260904072502 16 153 6.4 11.3 0.00 0.00 0.00 54 1015.6
20260904072003 16 147 4.8 11.3 0.00 0.00 0.00 54 1015.6
20260904071503 16 150 3.2 16.1 0.00 0.00 0.00 55 1015.6
20260904071003 16 163 6.4 8.0 0.00 0.00 0.00 54 1015.5
20260904070503 16 156 6.4 14.5 0.00 0.00 0.00 56 1015.5
20260904070004 15 152 3.2 14.5 0.00 0.00 0.00 57 1015.6
20260904065502 15 153 0.0 14.5 0.00 0.00 0.00 57 1015.6
20260904064503 15 172 0.0 3.2 0.00 0.00 0.00 56 1015.5
20260904064003 15 192 0.0 1.6 0.00 0.00 0.00 55 1015.5
20260904063502 15 209 0.0 1.6 0.00 0.00 0.00 55 1015.5
20260904063003 15 227 0.0 1.6 0.00 0.00 0.00 55 1015.4
20260904062503 15 0 0.0 0.0 0.00 0.00 0.00 54 1015.3
20260904062003 15 0 0.0 0.0 0.00 0.00 0.00 55 1015.5
20260904061502 15 0 0.0 0.0 0.00 0.00 0.00 54 1015.4
20260904061003 15 0 0.0 0.0 0.00 0.00 0.00 53 1015.3
20260904060503 15 0 0.0 0.0 0.00 0.00 0.00 53 1015.3
20260904060003 15 0 0.0 0.0 0.00 0.00 0.00 53 1015.3
20260904055503 15 232 0.0 1.6 0.00 0.00 0.00 53 1015.2
20260904055003 15 232 0.0 1.6 0.00 0.00 0.00 52 1015.2
20260904054503 15 215 0.0 3.2 0.00 0.00 0.00 53 1015.2
20260904054003 15 0 0.0 0.0 0.00 0.00 0.00 53 1015.2
20260904053503 15 95 0.0 1.6 0.00 0.00 0.00 53 1015.2
20260904053003 15 0 0.0 0.0 0.00 0.00 0.00 52 1015.2
20260904052502 15 95 0.0 1.6 0.00 0.00 0.00 52 1015.3
20260904052002 15 0 0.0 0.0 0.00 0.00 0.00 51 1015.3
20260904051503 16 148 0.0 3.2 0.00 0.00 0.00 52 1015.3
20260904051003 16 137 0.0 3.2 0.00 0.00 0.00 52 1015.4
20260904050503 16 133 1.6 3.2 0.00 0.00 0.00 52 1015.4
20260904050004 16 167 1.6 3.2 0.00 0.00 0.00 52 1015.4
20260904045503 16 120 0.0 4.8 0.00 0.00 0.00 52 1015.4